Regional Weather Roundup
Issued by NWS

Home | Current Version | Previous Version | Graphics & Text | Print | Product List | Glossary Off
Versions: 1 2 3 4 5 6 7 8 9 10 11 12 13 14 15 16 17 18 19 20 21 22 23 24 25 26 27 28 29 30 31 32 33 34 35 36 37 38 39 40 41 42 43 44 45 46 47 48 49 50

292
ASUS43 KMKX 300700
RWRWI

WISCONSIN REGIONAL WEATHER ROUNDUP
NATIONAL WEATHER SERVICE MILWAUKEE/SULLIVAN WI
200 AM CDT SUN APR 30 2017

NOTE: "FAIR" INDICATES FEW OR NO CLOUDS BELOW 12,000 FEET WITH NO
SIGNIFICANT WEATHER AND/OR OBSTRUCTIONS TO VISIBILITY.

WIZ001-002-006>008-014>016-023>028-300800-
NORTHWEST WISCONSIN

CITY           SKY/WX    TMP DP  RH WIND       PRES   REMARKS
SUPERIOR ARPT  CLOUDY    37  23  57 NE7       30.28S WCI  31
ASHLAND        MOCLDY    35  26  69 NE8       30.25F WCI  29
HAYWARD        CLOUDY    40  19  43 NE7       30.21F
SIREN          MOCLDY    41  19  42 CALM      30.20F
CUMBERLAND     CLOUDY    39  23  52 NE12      30.17F WCI  32
RICE LAKE      CLOUDY    42  24  48 NE10G17   30.17F
CHETEK         CLOUDY    42  25  50 NE10      30.16F
LADYSMITH      CLOUDY    41  23  48 NE8       30.19F
EAU CLAIRE     NOT AVBL
MENOMONIE      CLOUDY    45  27  49 NE8       30.14F
NEW RICHMOND   CLOUDY    43  25  49 NE13G21   30.15F
OSCEOLA        MOCLDY    44  26  50 NE8       30.20F
$$

WIZ003>005-009-010-017-018-300800-
NORTH CENTRAL WISCONSIN

CITY           SKY/WX    TMP DP  RH WIND       PRES   REMARKS
MANITOWISH WTR NOT AVBL
ARBOR VITAE    CLOUDY    39  20  46 E3        30.19F
WOODRUFF       CLOUDY    39  20  46 E3        30.19F
RHINELANDER    CLOUDY    39  19  44 E12       30.18F WCI  32
EAGLE RIVER    CLOUDY    36  16  44 E8        30.21S WCI  30
LAND O LAKES   CLOUDY    36  19  51 NE5       30.23F WCI  32
PHILLIPS       MOCLDY    38  22  54 NE8       30.18F WCI  32
TOMAHAWK       CLOUDY    39  19  43 NE8       30.18F WCI  34
MEDFORD        CLOUDY    40  22  48 NE8       30.15S WCI  35
MERRILL        CLOUDY    41  20  43 E10       30.19R
$$

WIZ029-030-035-036-043>047-300800-
CENTRAL WISCONSIN

CITY           SKY/WX    TMP DP  RH WIND       PRES   REMARKS
WAUSAU         CLOUDY    40  19  43 E13G20    30.16S WCI  32
MOSINEE        CLOUDY    41  19  42 E15G22    30.18R
MARSHFIELD     CLOUDY    42  20  41 E14       30.14R
STEVENS POINT  CLOUDY    40  22  47 E9        30.18R WCI  34
WAUPACA        CLOUDY    44  27  50 NE8       30.19R
WAUTOMA        LGT RAIN  41  32  70 NE13G20   30.16F
WISC RAPIDS    CLOUDY    43  22  43 E12       30.16S
CAMP DOUGLAS   NOT AVBL
$$

WIZ011>013-019>022-031-037>040-048>050-300800-
NORTHEAST WISCONSIN

CITY           SKY/WX    TMP DP  RH WIND       PRES   REMARKS
ANTIGO         CLOUDY    37  22  55 E12G18    30.18S WCI  29
SHAWANO        CLOUDY    43  27  54 NE12G18   30.19R
OCONTO         CLOUDY    40  28  60 NE9G18    30.18F WCI  34
STURGEON BAY   CLOUDY    41  28  60 NE10      30.20R
GREEN BAY      LGT RAIN  41  36  82 NE14      30.20R
MANITOWOC      NOT AVBL
APPLETON       DRIZZLE   39  32  75 NE9       30.17R WCI  33
CLINTONVILLE   CLOUDY    41  25  52 NE10G16   30.19R
OSHKOSH        LGT RAIN  39  36  89 NE12      30.14F WCI  32
$$

WIZ032>034-041-042-053>061-300800-
SOUTHWEST WISCONSIN

CITY           SKY/WX    TMP DP  RH WIND       PRES   REMARKS
LA CROSSE      CLOUDY    47  27  45 NE6G17    30.11F
SPARTA         CLOUDY    44  29  55 E10G21    30.13F
VIROQUA        CLOUDY    42  28  58 E16G23    30.09S
BOSCOBEL       CLOUDY    42  37  82 VRB7G20   30.06F
PRAIRIE DU CHI CLOUDY    42  32  67 NE12G17   30.05F
PLATTEVILLE    CLOUDY    40  39  99 NE15G21   30.02S WCI  31
$$

WIZ056-057-062-063-064-067-068-300800-
SOUTH CENTRAL WISCONSIN

CITY           SKY/WX    TMP DP  RH WIND       PRES   REMARKS
REEDSBURG      NOT AVBL
BARABOO/DELLS  DRIZZLE   37  35  90 NE12G17   30.11F WCI  30
LONE ROCK      NOT AVBL
MINERAL POINT  FLURRIES  39  39 100 NE17G26   30.02F WCI  30
MADISON        CLOUDY    39  37  92 N15       30.06F WCI  31
MIDDLETON      CLOUDY    40  39  97 NE18G24   30.06F WCI  31
WATERTOWN      CLOUDY    39  39 100 NE12G20   30.05F WCI  32
MONROE         CLOUDY    39  37  93 NE15G22   30.00S WCI  31
JANESVILLE     CLOUDY    43  43 100 E17G24    30.00F
$$

WIZ051-052-058>065-066-070>072-300800-
SOUTHEAST WISCONSIN

CITY           SKY/WX    TMP DP  RH WIND       PRES   REMARKS
MILWAUKEE      LGT RAIN  41  40  96 NE17G25   30.06F FOG
WAUKESHA       LGT SNOW  37  36  93 NE15G25   30.06F WCI  28
MILWAUKEE/TIMM RAIN      37  36  93 NE16G22   30.08F WCI  28
RACINE         CLOUDY    41  39  93 NE20G26   30.06F
KENOSHA        CLOUDY    42  40  92 NE16G30   30.02F FOG
FOND DU LAC    LGT RAIN  39  34  82 NE14      30.13F WCI  31
SHEBOYGAN      LGT RAIN  39  37  92 NE14      30.14F WCI  31
WEST BEND      LGT RAIN  37  37 100 NE14G20   30.10F WCI  29
JUNEAU         DRIZZLE   38  37  96 N13       30.09F WCI  30
$$

LSZ147-162-300800-
LAKE SUPERIOR

STATION/POSITION TIME  TEMP    WIND        PRES    WAVE
                       AIR SEA DIR/SP/G            HT/PER
                 (UTC) (F)     (DEG/KT/KT) (MB)    (FT/S)
DEVILS ISLAND    0600   37      50/ 11/ 12 1026.9F
PORT WING        0640   37      40/ 11/ 13 1025.1F
SAXON HARBOR     0630   37      40/  5/  6 1024.7F
$$

LMZ867-665-643>646-300800-
LAKE MICHIGAN

STATION/POSITION TIME  TEMP    WIND        PRES    WAVE
                       AIR SEA DIR/SP/G            HT/PER
                 (UTC) (F)     (DEG/KT/KT) (MB)    (FT/S)
CHAMBERS ISLAND  0640   39      10/ 16/ 21 1022.0S
N MID LAKE BUOY  0550   38 37   50/ 19/ 21 1023.3F   3/ 4
NORTHPORT PIER   0640   40      20/ 12/ 18 1022.4S
KEWAUNEE LAKESHO 0630   40      40/ 14/ 19 1021.1R
SHEBOYGAN LAKESH 0600   40      20/ 15/ 18 1021.4R
PORT WASHINGTON  0640   40      30/ 12/ 17 1020.7F
MILWAUKEE LAKESH 0630   40      10/ 19/ 22   N/A
S MID LAKE BUOY  0550   42 41   60/ 25/ 31 1016.0F   6/ 6
KENOSHA   LAKESH 0600   42      40/ 20/ 23 1017.3
$$

TC  - TEMPERATURE IN CELSIUS
VSB - VISIBILITY IN STATUTE MILES
WCI - WIND CHILL INDEX
HX  - HEAT INDEX





USA.gov is the U.S. government's official web portal to all federal, state and local government web resources and services.